Weather History for Pitt Meadows, BC

Change the Weather History Date:

Monday, October 7, 2013

  Actual Average (CYXX) Record (CYXX)
Temperature  
Mean Temperature 56 °F -  
Max Temperature 59 °F 59 °F 74 °F (2012)
Min Temperature 52 °F 45 °F 39 °F (2006)
Degree Days  
Heating Degree Days 10    
Growing Degree Days 6 (Base 50)    
Moisture  
Dew Point 48 °F    
Average Humidity 76    
Maximum Humidity 89    
Minimum Humidity 58    
Precipitation  
Precipitation 0.08 in - - ()
Sea Level Pressure  
Sea Level Pressure 29.89 in    
Wind  
Wind Speed 4 mph ()    
Max Wind Speed 10 mph    
Max Gust Speed 20 mph    
Averages and records for this station are not official NWS values.
T = Trace of Precipitation, MM = Missing Value Source: Averaged Metar Reports

Daily Weather History Graph

Daily Weather History Graph

Search for Another Location

Airport:

Trip Planner

Search our weather history database for the weather conditions in past years. The results will help you decide how hot, cold, wet, or windy it might be!

Date:

Astronomy

Oct. 07, 2013 Rise Set
Actual Time 7:19 AM PDT 6:36 PM PDT
Civil Twilight 6:48 AM PDT 7:07 PM PDT
Nautical Twilight 6:11 AM PDT 7:44 PM PDT
Astronomical Twilight 5:34 AM PDT 8:21 PM PDT
Moon 10:33 AM PDT (10/7) 8:07 PM PDT (10/7)
Length of Visible Light 12h 19m
Length of Day
11h 16m
Waxing Crescent, 9% of the Moon is Illuminated
Oct 7
Waxing Crescent
Oct 11
First Quarter
Oct 18
Full
Oct 26
Last Quarter
Nov 3
New

Hourly Weather History & Observations

Time (PDT) Temp. Dew Point Humidity Pressure Visibility Wind Dir Wind Speed Gust Speed Precip Events Conditions
12:00 AM 58.8 °F 45.5 °F 61% 29.84 in - SE 3.5 mph - N/A   Unknown
1:00 AM 58.5 °F 46.0 °F 63% 29.85 in - SSE 4.6 mph - N/A   Unknown
2:00 AM 54.7 °F 48.9 °F 81% 29.86 in - SE 2.3 mph - 0.02 in   Unknown
3:00 AM 54.7 °F 50.2 °F 85% 29.86 in - WSW 1.2 mph - N/A   Unknown
4:00 AM 53.1 °F 49.8 °F 89% 29.85 in - East 2.3 mph - N/A   Unknown
5:00 AM 55 °F 50 °F 78% 29.84 in - SSE 4.6 mph - -  
5:00 AM 54.7 °F 50.0 °F 84% 29.84 in - SSE 4.6 mph - N/A   Unknown
6:00 AM 54.3 °F 50.2 °F 86% 29.85 in - SSW 2.3 mph - N/A   Unknown
7:00 AM 53.8 °F 50.5 °F 89% 29.84 in - SSE 3.5 mph - 0.02 in   Unknown
8:00 AM 53.2 °F 49.5 °F 87% 29.85 in - SSE 3.5 mph - 0.05 in   Unknown
9:00 AM 53.2 °F 48.9 °F 85% 29.87 in - SSE 3.5 mph - N/A   Unknown
10:00 AM 54.0 °F 49.3 °F 84% 29.88 in - South 5.8 mph - N/A   Unknown
11:00 AM 56 °F 49 °F 71% 29.89 in - SSW 3.5 mph - -  
11:00 AM 56.5 °F 49.3 °F 77% 29.89 in - SSW 3.5 mph - N/A   Unknown
12:00 PM 58.3 °F 47.8 °F 68% 29.90 in - SSW 8.1 mph - N/A   Unknown
1:00 PM 58.5 °F 46.6 °F 65% 29.91 in - SW 8.1 mph - N/A   Unknown
2:00 PM 58.1 °F 44.4 °F 60% 29.91 in - South 10.4 mph 18.4 mph N/A   Unknown
3:00 PM 57.6 °F 44.8 °F 62% 29.92 in - South 9.2 mph 19.6 mph N/A   Unknown
4:00 PM 56.3 °F 45.3 °F 67% 29.93 in - South 6.9 mph - N/A   Unknown
5:00 PM 56 °F 45 °F 58% 29.92 in - South 6.9 mph - -  
5:00 PM 55.6 °F 45.3 °F 68% 29.92 in - South 6.9 mph - N/A   Unknown
6:00 PM 55.2 °F 44.8 °F 68% 29.92 in - South 5.8 mph - N/A   Unknown
7:00 PM 54.3 °F 45.7 °F 73% 29.92 in - South 8.1 mph - N/A   Unknown
8:00 PM 53.4 °F 47.1 °F 79% 29.92 in - South 5.8 mph - N/A   Unknown
9:00 PM 53.4 °F 46.8 °F 78% 29.93 in - SSW 3.5 mph - N/A   Unknown
10:00 PM 52.7 °F 47.5 °F 82% 29.93 in - South 4.6 mph - N/A   Unknown
11:00 PM 52 °F 48 °F 83% 29.93 in - South 2.3 mph - -  
11:00 PM 52.2 °F 48.4 °F 87% 29.93 in - South 2.3 mph - N/A   Unknown